Location: Griffin Ranch
(33.6186°N, 110.6622°W)
Time: 06:32:33
(UTC-07:00)

Daily predictions for brighter satellites

Satellite Brightness Start Highest point End
(mag) Time Altitude Azimuth Time Altitude Azimuth Time Altitude Azimuth
OAO 3 Rocket 3.3 19:24:26 10° W 19:29:16 81° N 19:34:12 10° E
Cosmos 2142 Rocket 4.5 19:26:40 10° S 19:32:43 70° E 19:38:51 10° N
SEDSat Delta rocket 3.4 19:29:14 10° W 19:33:55 70° S 19:39:21 10° E
Cosmos 1733 Rocket 4.1 19:30:38 10° NNE 19:34:30 28° ENE 19:38:20 10° SE
Cosmos 2322 Rocket 2.6 19:29:27 10° SSW 19:35:01 69° WNW 19:40:38 10° NNE
Cosmos 1825 2.7 19:33:47 10° N 19:37:23 40° E 19:40:58 10° SSE
Cosmos 1408 2.9 19:35:32 10° N 19:39:03 43° E 19:42:30 10° SSE
H-2A R/B 2.7 19:35:32 10° SSE 19:39:24 74° ENE 19:43:15 10° N
ALOS 2.7 19:34:55 10° S 19:39:32 67° WSW 19:44:12 10° NNW
Cosmos 1862 Rocket 4.0 19:37:20 10° SSE 19:41:32 42° E 19:45:45 10° NNE
Cosmos 2360 Rocket 2.4 19:36:39 10° S 19:42:01 48° ESE 19:47:26 10° NNE
Cosmos 2026 Rocket 4.1 19:37:41 10° N 19:43:46 57° E 19:49:43 10° SSE
Sakura Rocket 3.4 19:44:25 10° WSW 19:47:43 34° S 19:50:43 13° ESE
COSMOS 2428 3.8 19:43:59 10° SSE 19:48:13 22° E 19:52:28 10° NE
Atlas Centaur 2 2.6 19:45:39 10° WSW 19:51:35 66° S 19:58:46 11° E
HJ-1C 4.4 19:48:55 10° S 19:52:15 48° W 19:55:36 10° NNW
Cosmos 1869 4.5 19:48:36 10° SSW 19:52:23 46° W 19:56:12 10° N
ATLAS 5 CENTAUR R/B 3.1 19:48:36 10° NNW 19:54:19 40° NE 19:59:24 14° ESE
NOSS 3-1 (C) 4.4 19:54:47 10° SSE 19:58:54 21° ESE 20:03:15 10° ENE
USA 186 1.6 19:57:08 13° SSE 19:59:27 53° ENE 20:02:21 10° N
Cosmos 2322 3.7 19:56:42 10° S 20:02:20 62° ESE 20:07:57 10° NNE
Milstar 3 3.4 19:55:35 10° W 20:04:34 52° SSW 20:09:37 17° ESE
Resurs 1-3 3.7 20:00:49 10° S 20:05:11 80° WSW 20:09:35 10° NNW
USA 229 DEB 3.6 19:58:36 10° SSW 20:05:21 72° ESE 20:12:13 10° NE
USA 229 3.6 19:58:43 10° SSW 20:05:28 71° ESE 20:12:20 10° NE
SL-16 R/B 3.9 20:01:25 10° SW 20:06:38 37° WNW 20:11:51 10° N
Lacrosse 4 Rocket 2.4 20:04:31 10° NW 20:08:43 48° WSW 20:13:00 10° S
YAOGAN 6 4.3 20:09:21 16° E 20:09:49 17° ENE 20:12:09 10° NNE
CZ-2D R/B 3.6 20:06:25 10° S 20:10:18 68° W 20:14:10 10° NNW
Helios 1B rocket 2.3 20:06:54 10° NNE 20:11:00 68° ESE 20:15:04 10° S
NOSS 3-1 (A) 4.4 20:16:00 20° ESE 20:16:11 21° ESE 20:20:28 10° ENE
Intelsat 5-1 Rocket 3.6 20:24:16 10° SSW 20:24:41 11° SSW 20:24:41 11° SSW
Cosmos 1844 Rocket 4.1 20:22:16 10° NNE 20:26:18 20° ENE 20:27:56 18° E
Cosmos 2333 Rocket 3.5 20:28:14 21° E 20:28:14 21° E 20:31:38 10° NE
Meteor 2-10 Rocket 3.7 20:23:38 10° S 20:29:27 86° E 20:35:16 10° N
Cosmos 2221 Rocket 4.0 20:30:33 33° SE 20:31:48 41° E 20:35:57 10° NNE
Cosmos 2266 Rocket 4.3 20:27:02 10° N 20:33:08 48° E 20:36:19 27° SE
CZ-4B DEB 2.4 20:32:57 57° SSE 20:33:29 79° ENE 20:36:30 10° N
SJ-11-01 4.2 20:34:15 27° SSE 20:36:49 77° ENE 20:41:30 10° N
Cosmos 1655 Rocket 4.5 20:31:01 10° NNW 20:37:18 63° W 20:43:31 10° S
OAO 1 Rocket 4.4 20:33:58 10° WSW 20:39:13 60° SSE 20:41:32 32° E
Cosmos 2219 Rocket 2.6 20:43:24 36° SE 20:44:25 39° ESE 20:49:35 10° NE
Cosmos 968 Rocket 3.4 20:42:21 10° NNW 20:47:36 87° ENE 20:49:50 35° SSE
SAR-Lupe-4 4.4 20:46:57 26° SSW 20:48:35 47° W 20:52:03 10° NNW
Cosmos 489 Rocket 4.5 20:42:34 10° NNW 20:48:58 87° WSW 20:52:38 27° SSE
Resurs 01 Rocket 4.0 20:45:39 10° SW 20:48:58 21° W 20:52:19 10° NW
FALCON 9 R/B 2.2 20:52:44 10° W 20:53:56 27° W 20:53:56 27° W
Cosmos 1908 Rocket 3.6 20:52:21 10° N 20:56:41 73° W 20:58:06 41° SSW
Cosmos 1782 4.0 21:00:01 30° NE 21:00:01 30° NE 21:02:25 10° NNE
Envisat 3.8 21:00:21 20° SSW 21:03:39 47° W 21:08:33 10° NNW
USA 234 3.7 21:02:14 33° E 21:04:45 48° NE 21:10:59 10° NNW
Sich 1 Rocket 4.3 21:03:52 10° NNW 21:08:15 53° W 21:09:53 34° SSW
Cosmos 2263 Rocket 3.7 21:04:24 10° NW 21:09:13 31° WSW 21:12:59 15° SSW
Okean 1-7 3.2 21:10:04 53° SSW 21:11:01 72° W 21:15:25 10° N
Cosmos 1782 Rocket 3.4 21:07:06 10° N 21:11:29 89° W 21:11:35 86° S
OAO 3 Rocket 3.6 21:08:02 10° W 21:12:39 48° SSW 21:12:39 48° SSW
Cosmos 1939 Rocket 4.3 21:13:58 27° SW 21:15:12 33° W 21:18:51 10° NNW
H-2A R/B 3.3 21:18:33 26° NE 21:18:33 26° NE 21:21:44 10° NNE
MetOp-B 4.0 21:19:35 69° ESE 21:19:55 71° ENE 21:25:15 10° N
SEDSat Delta rocket 3.8 21:15:05 10° W 21:19:57 52° SSW 21:19:57 52° SSW
Cosmos 1867 4.2 21:15:27 10° NW 21:20:39 47° WSW 21:21:56 40° SSW
USA 245 4.3 21:20:53 55° ENE 21:20:53 55° ENE 21:25:30 10° N
SeaSat 1 3.8 21:21:33 26° NE 21:21:33 26° NE 21:25:10 10° N
ERS-1 Rocket 3.1 21:22:00 60° SSW 21:22:44 70° WSW 21:27:45 10° NNW
Nadezhda 2 Rocket 4.4 21:17:05 10° N 21:23:31 76° E 21:24:38 61° SE
SPOT 5 3.2 21:27:47 54° NNE 21:27:47 54° NNE 21:31:34 10° N
Cosmos 1570 Rocket 3.9 21:27:42 88° E 21:27:42 88° E 21:32:58 10° NNE
CZ-4C R/B 3.9 21:21:39 10° NNW 21:28:03 32° NE 21:29:38 30° ENE
Okean 2 Rocket 3.4 21:25:16 10° N 21:29:12 65° NNW 21:29:12 65° NNW
COSMOS 2428 3.9 21:26:47 10° SW 21:32:07 41° WNW 21:37:31 10° N
S3M 4.3 21:38:14 48° ENE 21:38:14 48° ENE 21:43:14 10° NNE
NOAA 11 4.2 21:37:54 72° SW 21:38:12 74° WSW 21:43:43 10° NNW
Cosmos 1980 4.1 21:39:48 51° NE 21:39:48 51° NE 21:44:03 10° NNE
ATLAS 5 CENTAUR R/B 3.7 21:33:27 10° NW 21:38:59 34° WSW 21:40:59 28° SW
Cosmos 2208 Rocket 4.1 21:39:55 78° NW 21:39:55 78° NW 21:45:04 10° NNE
Atlas Centaur 2 2.8 21:34:14 10° W 21:41:03 63° S 21:41:23 62° S
ARGOS 3.1 21:41:38 76° N 21:41:38 76° N 21:46:36 10° NNW
Nimbus 7 Rocket 4.3 21:36:48 10° NNE 21:42:47 89° W 21:43:09 80° SSW
Meteor 1-10 Rocket 4.5 21:42:36 57° SW 21:43:39 69° W 21:49:30 10° N
SL-16 R/B 4.5 21:49:41 12° NE 21:49:41 12° NE 21:50:05 10° NE
Cosmos 1844 3.8 21:40:01 10° NNW 21:45:01 66° NNE 21:45:01 66° NNE
NOSS 3-1 (C) 4.2 21:43:42 10° SW 21:49:09 47° NW 21:55:13 10° NNE
Meteor 1-11 Rocket 4.5 21:47:23 10° N 21:51:20 42° NNE 21:51:20 42° NNE
MOS 1-B Rocket 3.9 21:56:47 73° W 21:56:47 73° W 22:02:12 10° NNW
Terra 3.6 22:07:06 25° NNE 22:07:06 25° NNE 22:09:13 10° N
Cosmos 2237 Rocket 2.7 22:06:22 54° N 22:06:22 54° N 22:10:53 10° NNE
SPOT 1/Viking Rocket 4.3 22:06:44 50° NNW 22:06:44 50° NNW 22:10:38 10° NNW
NOSS 3-1 (A) 4.1 22:03:03 23° WSW 22:06:27 48° NW 22:12:33 10° NNE
ATLAS 2AS CENTAUR R/B 4.3 22:11:17 24° ENE 22:11:17 24° ENE 22:14:33 10° NE
Cosmos 1844 Rocket 3.5 22:05:05 10° NNW 22:09:36 44° W 22:09:36 44° W
Cosmos 2333 Rocket 3.2 22:10:05 39° W 22:11:16 44° WNW 22:16:47 10° N
Cosmos 1745 Rocket 4.4 22:08:01 10° N 22:13:05 58° NNE 22:13:05 58° NNE
Cosmos 2278 Rocket 3.0 22:09:20 10° NNW 22:13:17 45° N 22:13:17 45° N
H-2A R/B 4.4 22:24:53 20° N 22:24:53 20° N 22:26:17 10° N
Cosmos 2219 Rocket 4.2 22:24:55 14° WSW 22:28:25 24° WNW 22:32:56 10° N
ATLAS 3B R/B 4.5 22:31:35 10° N 22:36:03 18° NE 22:36:24 18° NE
USA 234 4.4 22:49:35 34° W 22:49:35 34° W 22:53:50 10° WNW
H-2A R/B 4.3 22:59:11 18° WNW 22:59:11 18° WNW 23:00:59 10° NW
CZ-4C R/B 3.7 23:09:42 10° NW 23:14:50 43° WNW 23:14:50 43° WNW
SL-16 R/B 4.2 23:31:31 24° NNW 23:31:31 24° NNW 23:34:17 10° N
